FW0689 Weather Reports


Display with metric or nautical units.
time (UTC)temp
F
wind
direction
speed
MPH
gust
MPH
rain 1hr
in
rain 24hr
in
rain mn
in
humidity
%
barometer
mb
20260831221031 59 242 0.0 0.0 0.00 0.00 0.00 41 1020.0
20260831220131 59 222 0.0 0.0 0.00 0.00 0.00 41 1020.0
20260831215126 59 236 0.0 0.0 0.00 0.00 0.00 41 1019.9
20260831214128 59 245 0.0 0.0 0.00 0.00 0.00 41 1019.9
20260831213128 60 234 0.0 0.0 0.00 0.00 0.00 41 1019.8
20260831212128 60 246 0.0 0.0 0.00 0.00 0.00 41 1019.8
20260831211126 60 241 0.0 0.0 0.00 0.00 0.00 41 1019.6
20260831210144 60 254 0.0 0.0 0.00 0.00 0.00 41 1019.6
20260831205127 60 246 0.0 0.0 0.00 0.00 0.00 41 1019.4
20260831204126 60 252 0.0 0.0 0.00 0.00 0.00 41 1019.3
20260831203126 60 250 0.0 0.0 0.00 0.00 0.00 41 1019.3
20260831202127 61 234 0.0 0.0 0.00 0.00 0.00 41 1019.2
20260831201127 61 249 0.0 0.0 0.00 0.00 0.00 41 1019.0
20260831200227 61 242 0.0 0.0 0.00 0.00 0.00 41 1018.7
20260831194243 60 247 0.0 0.0 0.00 0.00 0.00 41 1018.5
20260831193228 60 253 0.0 0.0 0.00 0.00 0.00 41 1018.4
20260831192228 60 253 0.0 0.0 0.00 0.00 0.00 41 1018.3
20260831191228 60 249 0.0 0.0 0.00 0.00 0.00 40 1018.3
20260831190227 60 246 0.0 0.0 0.00 0.00 0.00 41 1018.1
20260831185227 60 255 0.0 0.0 0.00 0.00 0.00 41 1017.8
20260831184228 60 249 0.0 0.0 0.00 0.00 0.00 41 1017.6
20260831183227 61 264 0.0 0.0 0.00 0.00 0.00 41 1017.5
20260831182227 61 261 0.0 0.0 0.00 0.00 0.00 41 1017.4
20260831181229 61 263 0.0 0.0 0.00 0.00 0.00 41 1017.2
20260831180228 61 256 0.0 0.0 0.00 0.00 0.00 41 1017.1
20260831175227 62 267 0.0 0.0 0.00 0.00 0.00 41 1016.9
20260831174228 62 282 0.0 0.0 0.00 0.00 0.00 41 1016.6
20260831173227 62 258 0.0 0.0 0.00 0.00 0.00 41 1016.3
20260831172229 62 249 0.0 0.0 0.00 0.00 0.00 41 1016.2
20260831171227 62 275 0.0 0.0 0.00 0.00 0.00 40 1016.4
20260831170228 62 253 0.0 0.0 0.00 0.00 0.00 40 1016.2
20260831165228 62 268 0.0 0.0 0.00 0.00 0.00 40 1016.1
20260831164228 62 244 0.0 0.0 0.00 0.00 0.00 40 1015.7
20260831163228 62 261 0.0 0.0 0.00 0.00 0.00 40 1015.7
20260831162325 62 262 0.0 0.0 0.00 0.00 0.00 40 1015.4
20260831160328 64 276 0.0 0.0 0.00 0.00 0.00 39 1015.4
20260831155326 64 271 0.0 0.0 0.00 0.00 0.00 39 1015.2
20260831153329 64 282 0.0 0.0 0.00 0.00 0.00 39 1015.2
20260831152343 64 268 0.0 0.0 0.00 0.00 0.00 40 1015.1
20260831151326 64 284 0.0 0.0 0.00 0.00 0.00 40 1014.8
20260831145426 63 269 0.0 0.0 0.00 0.00 0.00 40 1014.6
20260831143428 61 273 0.0 0.0 0.00 0.00 0.00 41 1014.6
20260831142427 60 249 0.0 0.0 0.00 0.00 0.00 41 1014.6
20260831140428 64 267 0.0 0.0 0.00 0.00 0.00 40 1014.5
20260831135427 64 226 0.0 0.0 0.00 0.00 0.00 40 1014.3
20260831133527 62 203 0.0 0.0 0.00 0.00 0.00 40 1014.0
20260831131626 59 202 0.0 0.0 0.00 0.00 0.00 42 1014.2
20260831130628 59 216 0.0 0.0 0.00 0.00 0.00 42 1014.1
20260831125726 59 212 0.0 0.0 0.00 0.00 0.00 41 1013.9
20260831124728 60 247 0.0 0.0 0.00 0.00 0.00 40 1013.9
20260831123827 60 258 0.0 0.0 0.00 0.00 0.00 41 1013.7
20260831122827 61 270 0.0 0.0 0.00 0.00 0.00 39 1013.7
20260831121841 64 287 0.0 0.0 0.00 0.00 0.00 40 1013.4
20260831120927 67 295 0.0 0.0 0.00 0.00 0.00 39 1013.2
20260831115926 67 213 0.0 0.0 0.00 0.00 0.00 39 1012.9
20260831114927 67 222 0.0 0.0 0.00 0.00 0.00 39 1012.7
20260831112943 64 209 0.0 0.0 0.00 0.00 0.00 40 1012.8
20260831111926 62 184 0.0 0.0 0.00 0.00 0.00 40 1012.9
20260831111025 61 202 0.0 0.0 0.00 0.00 0.00 41 1013.0
20260831105027 64 242 0.0 0.0 0.00 0.00 0.00 39 1013.3
20260831104026 65 212 0.0 0.0 0.00 0.00 0.00 39 1012.8
20260831103028 65 201 0.0 0.0 0.00 0.00 0.00 39 1012.7
20260831101029 66 202 0.0 0.0 0.00 0.00 0.00 38 1012.7
20260831100027 65 203 0.0 0.0 0.00 0.00 0.00 39 1013.0
20260831095028 65 204 0.0 0.0 0.00 0.00 0.00 39 1012.9
20260831093126 65 202 0.0 0.0 0.00 0.00 0.00 39 1012.9
20260831092143 65 220 0.0 0.0 0.00 0.00 0.00 39 1013.0
20260831091127 66 201 0.0 0.0 0.00 0.00 0.00 39 1012.9
20260831085226 64 201 0.0 0.0 0.00 0.00 0.00 40 1013.0
20260831084226 63 202 0.0 0.0 0.00 0.00 0.00 40 1012.9
20260831083325 64 220 0.0 0.0 0.00 0.00 0.00 40 1013.1
20260831082328 65 201 0.0 0.0 0.00 0.00 0.00 40 1013.0
20260831081327 66 206 0.0 0.0 0.00 0.00 0.00 39 1012.7
20260831080327 65 220 0.0 0.0 0.00 0.00 0.00 40 1012.7
20260831075327 65 204 0.0 0.0 0.00 0.00 0.00 40 1012.8
20260831074326 64 208 0.0 0.0 0.00 0.00 0.00 39 1013.0
20260831073328 64 199 0.0 0.0 0.00 0.00 0.00 40 1013.0
20260831072327 63 206 0.0 0.0 0.00 0.00 0.00 40 1013.1
20260831071328 63 211 0.0 0.0 0.00 0.00 0.00 40 1013.3
20260831070327 63 214 0.0 0.0 0.00 0.00 0.00 40 1013.2
20260831065343 63 200 0.0 0.0 0.00 0.00 0.00 40 1013.1
20260831064344 63 212 0.0 0.0 0.00 0.00 0.00 40 1013.1
20260831063327 63 202 0.0 0.0 0.00 0.00 0.00 40 1012.8
20260831062326 62 201 0.0 0.0 0.00 0.00 0.00 40 1012.9
20260831061426 62 205 0.0 0.0 0.00 0.00 0.00 41 1013.0
20260831060327 62 196 0.0 0.0 0.00 0.00 0.00 41 1012.9
20260831055325 61 191 0.0 0.0 0.00 0.00 0.00 41 1012.9
20260831054329 61 200 0.0 0.0 0.00 0.00 0.00 41 1012.9
20260831053427 61 200 0.0 0.0 0.00 0.00 0.00 41 1012.9
20260831052526 61 202 0.0 0.0 0.00 0.00 0.00 41 1013.0
20260831050626 60 202 0.0 0.0 0.00 0.00 0.00 41 1012.8
20260831045626 60 189 0.0 0.0 0.00 0.00 0.00 41 1012.6
20260831044628 60 182 0.0 0.0 0.00 0.00 0.00 41 1012.7
20260831042725 60 194 0.0 0.0 0.00 0.00 0.00 41 1012.8
20260831041728 60 194 0.0 0.0 0.00 0.00 0.00 41 1012.8
20260831040727 60 196 0.0 0.0 0.00 0.00 0.00 41 1012.7
20260831035826 60 162 0.0 0.0 0.00 0.00 0.00 41 1012.7
20260831034844 60 159 0.0 0.0 0.00 0.00 0.00 41 1012.7
20260831033928 61 132 0.0 0.0 0.00 0.00 0.00 41 1012.8
20260831032927 61 175 0.0 0.0 0.00 0.00 0.00 40 1012.9
20260831032025 61 196 0.0 0.0 0.00 0.00 0.00 40 1013.0
20260831031027 61 181 0.0 0.0 0.00 0.00 0.00 41 1012.9
20260831025029 61 186 0.0 0.0 0.00 0.00 0.00 41 1013.0
20260831024042 61 196 0.0 0.0 0.00 0.00 0.00 41 1013.1
20260831023126 62 201 0.0 0.0 0.00 0.00 0.00 41 1013.0
20260831022128 61 204 0.0 0.0 0.00 0.00 0.00 41 1013.2
20260831021225 61 200 0.0 0.0 0.00 0.00 0.00 41 1013.2
20260831015241 62 198 0.0 0.0 0.00 0.00 0.00 41 1013.2
20260831011426 62 126 0.0 0.0 0.00 0.00 0.00 41 1013.4
20260831010427 62 165 0.0 0.0 0.00 0.00 0.00 40 1013.5
20260831005426 62 178 0.0 0.0 0.00 0.00 0.00 41 1013.5
20260831004427 62 194 0.0 0.0 0.00 0.00 0.00 41 1013.7
20260831002428 62 193 0.0 0.0 0.00 0.00 0.00 41 1013.8
20260831001429 62 198 0.0 0.0 0.00 0.00 0.00 41 1013.8
20260831000427 62 181 0.0 0.0 0.00 0.00 0.00 41 1013.9
20260830235426 62 150 0.0 0.0 0.00 0.00 0.00 41 1013.9
20260830234427 63 146 0.0 0.0 0.00 0.00 0.00 40 1013.8
20260830233526 63 156 0.0 0.0 0.00 0.00 0.00 40 1013.8
20260830232528 63 152 0.0 0.0 0.00 0.00 0.00 40 1013.8
20260830224627 61 123 0.0 0.0 0.00 0.00 0.00 39 1014.4
20260830223627 61 127 0.0 0.0 0.00 0.00 0.00 39 1014.7
20260830222628 61 112 0.0 0.0 0.00 0.00 0.00 40 1014.8